Weather History for Springfield, MO

Change the Weather History Date:

Monday, March 4, 2013

  Actual Average Record
Temperature  
Mean Temperature 51 °F 43 °F  
Max Temperature 64 °F 54 °F 79 °F (1938)
Min Temperature 38 °F 32 °F -2 °F (2002)
Degree Days  
Heating Degree Days 14 22  
Month to date heating degree days 118 91  
Since 1 July heating degree days 3416 3684  
Cooling Degree Days 0 0  
Month to date cooling degree days 0 0  
Year to date cooling degree days 0 0  
Growing Degree Days 2 (Base 50)    
Moisture  
Dew Point 36 °F    
Average Humidity 59    
Maximum Humidity 86    
Minimum Humidity 42    
Precipitation  
Precipitation 0.00 in 0.11 in 1.50 in (1935)
Month to date precipitation T 0.41  
Year to date precipitation 5.34 5.40  
Snow  
Snow 0.00 in - - ()
Month to date snowfall T  
Since 1 July snowfall 7.0  
Snow Depth 0.00 in    
Sea Level Pressure  
Sea Level Pressure 29.71 in    
Wind  
Wind Speed 14 mph (SE)    
Max Wind Speed 22 mph    
Max Gust Speed 33 mph    
Visibility 10 miles    
Events      
T = Trace of Precipitation, MM = Missing Value Source: NWS Daily Summary

Daily Weather History Graph

Daily Weather History Graph

Search for Another Location

Airport:

Trip Planner

Search our weather history database for the weather conditions in past years. The results will help you decide how hot, cold, wet, or windy it might be!

Date:

Astronomy

Mar. 04, 2013 Rise Set
Actual Time 6:40 AM CST 6:10 PM CST
Civil Twilight 6:14 AM CST 6:36 PM CST
Nautical Twilight 5:43 AM CST 7:07 PM CST
Astronomical Twilight 5:13 AM CST 7:37 PM CST
Moon 12:44 AM CST (3/4) 10:58 AM CST (3/4)
Length of Visible Light 12h 22m
Length of Day
11h 30m
Waning Gibbous, 52% of the Moon is Illuminated
Mar 4
Waning Gibbous
Mar 4
Last Quarter
Mar 11
New
Mar 19
First Quarter
Mar 27
Full

Hourly Weather History & Observations

Time (CST) Temp. Windchill Dew Point Humidity Pressure Visibility Wind Dir Wind Speed Gust Speed Precip Events Conditions
12:52 AM 41.0 °F 31.9 °F 27.0 °F 57% 29.79 in 10.0 mi SE 19.6 mph 28.8 mph N/A   Clear
2:52 AM 39.0 °F 28.8 °F 27.0 °F 62% 29.72 in 10.0 mi SE 21.9 mph 28.8 mph N/A   Clear
3:52 AM 37.9 °F 27.9 °F 27.0 °F 65% 29.71 in 10.0 mi SE 19.6 mph - N/A   Clear
4:52 AM 37.4 °F 26.9 °F 26.6 °F 65% 29.69 in 10.0 mi SSE 20.7 mph - N/A   Clear
5:52 AM 39.0 °F 29.0 °F 28.0 °F 65% 29.70 in 10.0 mi SSE 20.7 mph - N/A   Clear
6:52 AM 39.0 °F 29.3 °F 28.9 °F 67% 29.70 in 10.0 mi SE 19.6 mph - N/A   Clear
7:52 AM 39.9 °F 30.8 °F 30.0 °F 68% 29.71 in 10.0 mi SE 18.4 mph - N/A   Clear
8:52 AM 44.1 °F 35.9 °F 30.9 °F 60% 29.70 in 10.0 mi SSE 19.6 mph 28.8 mph N/A   Clear
9:52 AM 48.0 °F - 33.1 °F 56% 29.70 in 10.0 mi SSE 18.4 mph - N/A   Clear
10:52 AM 52.0 °F - 35.1 °F 53% 29.68 in 10.0 mi SSE 18.4 mph - N/A   Clear
11:52 AM 55.9 °F - 37.0 °F 49% 29.67 in 10.0 mi SSE 15.0 mph - N/A   Clear
12:00 PM 57.0 °F - 37.0 °F 47% 29.67 in 10.0 mi South 15.0 mph - N/A   Clear
12:05 PM 57.0 °F - 37.0 °F 47% 29.67 in 10.0 mi SSE 16.1 mph - N/A   Clear
12:52 PM 59.0 °F - 37.9 °F 46% 29.64 in 10.0 mi SSE 10.4 mph 19.6 mph N/A   Clear
1:52 PM 60.1 °F - 37.9 °F 44% 29.63 in 10.0 mi SSE 6.9 mph 17.3 mph N/A   Clear
2:52 PM 62.1 °F - 39.0 °F 43% 29.63 in 10.0 mi SSW 6.9 mph - N/A   Clear
3:52 PM 62.1 °F - 39.0 °F 43% 29.64 in 10.0 mi SSE 3.5 mph - N/A   Clear
4:52 PM 61.0 °F - 39.9 °F 46% 29.65 in 10.0 mi ESE 4.6 mph - N/A   Mostly Cloudy
5:52 PM 57.9 °F - 43.0 °F 58% 29.67 in 10.0 mi SE 11.5 mph - N/A   Overcast
6:52 PM 55.0 °F - 44.1 °F 67% 29.70 in 10.0 mi SE 11.5 mph - N/A   Overcast
7:52 PM 51.1 °F - 44.1 °F 77% 29.71 in 10.0 mi SE 9.2 mph - N/A   Partly Cloudy
8:52 PM 50.0 °F - 43.0 °F 77% 29.73 in 10.0 mi East 4.6 mph - N/A   Clear
9:52 PM 46.9 °F - 42.1 °F 83% 29.75 in 10.0 mi NNE 4.6 mph - N/A   Clear
10:42 PM 46.9 °F - 39.9 °F 77% 29.79 in 10.0 mi NNW 16.1 mph - N/A   Overcast
10:52 PM 45.0 °F 38.2 °F 37.9 °F 76% 29.80 in 10.0 mi NW 15.0 mph - N/A   Mostly Cloudy
11:52 PM 42.1 °F 33.9 °F 33.1 °F 70% 29.84 in 10.0 mi NNW 17.3 mph - N/A   Mostly Cloudy